Regional Weather Roundup
Issued by NWS

Home | Current Version | Previous Version | Graphics & Text | Print | Product List | Glossary On
Versions: 1 2 3 4 5 6 7 8 9 10 11 12 13 14 15 16 17 18 19 20 21 22 23 24 25 26 27 28 29 30 31 32 33 34 35 36 37 38 39 40 41 42 43 44 45 46 47 48 49 50
000
ASUS45 KCYS 261410
RWRWY

WYOMING REGIONAL WEATHER ROUNDUP
NATIONAL WEATHER SERVICE CHEYENNE WY
800 AM MDT TUE AUG 26 2014

NOTE:  "FAIR" INDICATES FEW OR NO CLOUDS BELOW 12,000 FEET
WITH NO SIGNIFICANT WEATHER AND/OR OBSTRUCTIONS TO VISIBILITY.

WYZ001-261500-
YELLOWSTONE NATIONAL PARK

CITY           SKY/WX    TMP DP  RH WIND       PRES   REMARKS
LK YELLOWSTONE   N/A     43  41  93 CALM      30.34R
W YELLOWSTONE  NOT AVBL

$$
WYZ002>013-054>058-071-098>099-261500-
NORTHERN WYOMING

CITY           SKY/WX    TMP DP  RH WIND       PRES   REMARKS
JACKSON        PTSUNNY   45  43  93 CALM      30.29R
CODY           MOSUNNY   52  48  87 CALM      30.20R
GREYBULL       SUNNY     53  50  89 CALM      30.16R
WORLAND        SUNNY     53  51  93 W5        30.16R
SHERIDAN       SUNNY     51  47  86 S5        30.16R
BUFFALO        SUNNY     52  45  77 NW5       30.17R
GILLETTE       MOSUNNY   56  52  86 S14       30.14R
HULETT         PTSUNNY   50  46  87 MISG      30.17
NEWCASTLE      FAIR      59  52  77 S9        30.18

$$
WYZ014>020-022>026-101>103-261500-
CENTRAL WYOMING

CITY           SKY/WX    TMP DP  RH WIND       PRES   REMARKS
BIG PINEY      PTSUNNY   48  46  93 N7        30.31R
PINEDALE       PTSUNNY   46  45  93 CALM      30.31R
DUBOIS         CLOUDY    46  39  76 NW12G18   30.27R
LANDER         LGT RAIN  51  48  89 E3        30.21R
RIVERTON       CLOUDY    48  46  93 S8        30.24R
CASPER         PTSUNNY   54  51  90 W8        30.19R
DOUGLAS        PTSUNNY   57  52  83 CALM      30.19R

$$
WYZ021-027>030-104>119-261500-
SOUTHERN WYOMING

CITY           SKY/WX    TMP DP  RH WIND       PRES   REMARKS
EVANSTON       PTSUNNY   49  45  86 E7        30.30S
KEMMERER       PTSUNNY   50  46  87 E5        30.30S
FORT BRIDGER     N/A     52  49  89 S5        30.34F
ROCK SPRINGS   MOSUNNY   49  44  83 N8        30.30R
DIXON          PTSUNNY   53  47  80 E5        30.29R
RAWLINS        PTSUNNY   53  48  83 CALM      30.29R
SARATOGA       FAIR      52  45  76 MISG      30.29R
LARAMIE        PTSUNNY   51  48  89 S9        30.30S
CHEYENNE       PTSUNNY   57  53  86 SW9       30.27S
TORRINGTON     PTSUNNY   56  54  93 W3        30.17S
PINE BLUFFS    FAIR      57  55  94 S6        30.23S

$$


USA.gov is the U.S. government's official web portal to all federal, state and local government web resources and services.